QPF
0.00 0.00 0.00 0.00 0.00 0.00 0.00 0.00 0.00 0.00 0.00 0.00 0.00 0.00 0.00 0.00 0.00 0.00 0.00 0.00 0.00 0.00 0.00 0.00 0.00 0.00 0.00 0.00 0.00 0.00 0.00 0.00 0.00 0.00 0.00 0.00 0.00 0.00 0.00 0.00 0.00 0.00 0.00 0.00 0.00 0.00 0.00 0.00 0.00 0.00 0.00 0.00 0.00 0.00
0.00 0.00 0.00 0.00 0.00 0.00 0.00 0.00 0.00 0.00 0.00 0.00 0.00 0.00 0.00 0.00 0.00 0.00 0.00 0.00 0.00 0.00 0.00 0.00 0.00 0.00 0.00 0.00 0.00 0.00 0.00 0.00 0.00 0.00 0.00 0.00 0.00 0.00 0.00 0.00 0.01 0.01 0.01 0.00 0.01 0.00 0.00 0.00 0.00 0.00 0.00 0.00 0.00 0.00
0.00 0.00 0.00 0.00 0.00 0.00 0.00 0.00 0.00 0.00 0.00 0.00 0.00 0.00 0.00 0.00 0.00 0.00 0.00 0.00 0.00 0.00 0.00 0.00 0.00 0.00 0.00 0.00 0.00 0.00 0.00 0.00 0.00 0.00 0.00 0.00 0.00 0.00 0.00 0.00 0.00 0.00 0.00 0.00 0.00 0.00 0.00 0.00 0.00 0.00 0.00 0.00 0.00 0.00
0.00 0.00 0.00 0.00 0.00 0.00 0.00 0.00 0.00 0.00 0.00 0.00 0.00 0.00 0.00 0.00 0.00 0.00 0.00 0.00 0.00 0.00 0.00 0.00 0.00 0.00 0.00 0.00 0.00 0.00 0.00 0.00 0.00 0.00 0.00 0.00 0.00 0.00 0.00 0.00 0.00 0.00 0.00 0.00 0.00 0.00 0.00 0.00 0.00 0.00 0.00 0.00 0.02 0.05
0.00 0.00 0.00 0.00 0.00 0.00 0.00 0.00 0.00 0.00 0.00 0.00 0.00 0.00 0.00 0.00 0.00 0.00 0.00 0.00 0.00 0.00 0.00 0.00 0.00 0.00 0.00 0.00 0.00 0.00 0.00 0.00 0.00 0.00 0.00 0.00 0.00 0.00 0.00 0.00 0.00 0.00 0.00 0.00 0.00 0.00 0.00 0.00 0.00 0.00 0.01 0.01 0.04 0.06
0.00 0.00 0.00 0.00 0.00 0.00 0.00 0.00 0.00 0.00 0.00 0.00 0.00 0.00 0.00 0.00 0.00 0.00 0.00 0.00 0.00 0.00 0.00 0.00 0.00 0.00 0.00 0.00 0.00 0.00 0.00 0.00 0.00 0.00 0.00 0.00 0.00 0.00 0.00 0.00 0.00 0.00 0.00 0.00 0.00 0.00 0.00 0.00 0.00 0.01 0.02 0.01 0.02 0.03
0.00 0.00 0.00 0.00 0.00 0.00 0.00 0.00 0.00 0.00 0.00 0.00 0.00 0.00 0.00 0.00 0.00 0.00 0.00 0.00 0.00 0.00 0.01 0.00 0.00 0.00 0.00 0.00 0.00 0.00 0.00 0.00 0.00 0.00 0.00 0.00 0.00 0.00 0.00 0.00 0.00 0.00 0.00 0.00 0.00 0.00 0.00 0.00 0.00 0.00 0.02 0.00 0.01 0.02
0.00 0.00 0.00 0.00 0.00 0.00 0.00 0.00 0.00 0.00 0.00 0.00 0.00 0.00 0.00 0.00 0.00 0.00 0.00 0.00 0.00 0.00 0.00 0.00 0.00 0.00 0.00 0.00 0.00 0.00 0.00 0.00 0.00 0.00 0.00 0.00 0.00 0.00 0.00 0.00 0.00 0.00 0.00 0.00 0.00 0.00 0.00 0.00 0.00 0.00 0.00 0.01 0.01 0.03
0.00 0.00 0.00 0.00 0.00 0.00 0.00 0.00 0.00 0.00 0.00 0.00 0.00 0.00 0.00 0.00 0.00 0.00 0.00 0.00 0.00 0.00 0.00 0.00 0.00 0.00 0.00 0.00 0.00 0.00 0.00 0.00 0.00 0.00 0.00 0.00 0.00 0.00 0.00 0.00 0.00 0.01 0.01 0.00 0.00 0.00 0.00 0.00 0.00 0.00 0.00 0.00 0.01 0.03
0.00 0.00 0.00 0.00 0.00 0.00 0.00 0.00 0.00 0.00 0.00 0.00 0.00 0.00 0.00 0.00 0.00 0.00 0.00 0.00 0.00 0.00 0.00 0.00 0.00 0.00 0.00 0.00 0.00 0.00 0.00 0.00 0.00 0.00 0.00 0.00 0.00 0.00 0.00 0.00 0.00 0.00 0.00 0.00 0.00 0.00 0.00 0.00 0.00 0.00 0.00 0.00 0.00 0.01
0.00 0.00 0.00 0.00 0.00 0.00 0.00 0.00 0.00 0.00 0.00 0.00 0.00 0.00 0.00 0.00 0.00 0.00 0.00 0.00 0.00 0.00 0.00 0.00 0.00 0.00 0.00 0.00 0.00 0.00 0.00 0.00 0.00 0.00 0.03 0.02 0.01 0.02 0.04 0.03 0.01 0.00 0.00 0.01 0.00 0.00 0.00 0.00 0.00 0.00 0.00 0.00 0.00 0.00
0.00 0.00 0.00 0.00 0.00 0.00 0.00 0.00 0.00 0.00 0.00 0.00 0.00 0.00 0.00 0.00 0.00 0.00 0.00 0.00 0.00 0.01 0.00 0.00 0.00 0.00 0.00 0.00 0.00 0.00 0.00 0.00 0.00 0.00 0.02 0.02 0.02 0.01 0.00 0.01 0.00 0.00 0.00 0.05 0.01 0.00 0.00 0.00 0.00 0.00 0.00 0.00 0.00 0.00
0.00 0.00 0.00 0.00 0.00 0.00 0.00 0.00 0.00 0.00 0.00 0.00 0.00 0.00 0.00 0.00 0.00 0.00 0.01 0.00 0.00 0.00 0.00 0.00 0.00 0.00 0.00 0.00 0.00 0.00 0.01 0.02 0.02 0.01 0.00 0.00 0.00 0.00 0.00 0.00 0.00 0.00 0.00 0.07 0.07 0.01 0.00 0.00 0.00 0.00 0.00 0.00 0.00 0.00
0.00 0.00 0.00 0.00 0.00 0.00 0.00 0.00 0.00 0.00 0.00 0.00 0.00 0.00 0.00 0.00 0.00 0.00 0.00 0.00 0.00 0.00 0.00 0.00 0.00 0.00 0.00 0.01 0.01 0.02 0.03 0.04 0.00 0.00 0.01 0.00 0.00 0.00 0.00 0.00 0.00 0.00 0.00 0.04 0.05 0.02 0.00 0.00 0.00 0.00 0.00 0.00 0.00 0.00
0.00 0.00 0.00 0.00 0.00 0.00 0.00 0.00 0.00 0.00 0.00 0.00 0.00 0.00 0.00 0.00 0.00 0.00 0.00 0.00 0.00 0.00 0.00 0.00 0.00 0.00 0.00 0.00 0.00 0.00 0.01 0.01 0.01 0.02 0.02 0.01 0.00 0.00 0.00 0.00 0.00 0.00 0.00 0.00 0.00 0.02 0.04 0.01 0.00 0.00 0.00 0.00 0.00 0.00
0.00 0.00 0.00 0.00 0.00 0.00 0.00 0.00 0.00 0.00 0.00 0.00 0.00 0.00 0.00 0.00 0.00 0.00 0.00 0.00 0.00 0.00 0.00 0.00 0.00 0.00 0.00 0.00 0.00 0.01 0.01 0.00 0.01 0.01 0.01 0.00 0.01 0.02 0.01 0.00 0.00 0.00 0.00 0.00 0.00 0.01 0.03 0.02 0.01 0.00 0.01 0.01 0.01 0.01
0.00 0.00 0.00 0.00 0.00 0.00 0.00 0.00 0.00 0.00 0.00 0.00 0.00 0.00 0.00 0.00 0.00 0.00 0.00 0.00 0.00 0.00 0.00 0.00 0.00 0.01 0.00 0.00 0.00 0.00 0.01 0.00 0.00 0.00 0.01 0.01 0.01 0.03 0.05 0.01 0.00 0.00 0.00 0.00 0.00 0.00 0.01 0.02 0.02 0.00 0.04 0.07 0.10 0.14
0.00 0.00 0.00 0.00 0.00 0.00 0.00 0.00 0.00 0.00 0.00 0.00 0.00 0.00 0.00 0.00 0.00 0.00 0.00 0.00 0.00 0.00 0.00 0.00 0.00 0.00 0.01 0.00 0.00 0.00 0.00 0.00 0.00 0.00 0.01 0.04 0.04 0.03 0.04 0.01 0.00 0.00 0.00 0.00 0.00 0.00 0.03 0.01 0.05 0.01 0.03 0.03 0.04 0.03
0.00 0.00 0.00 0.00 0.00 0.00 0.00 0.00 0.00 0.00 0.00 0.00 0.00 0.00 0.00 0.00 0.00 0.00 0.00 0.00 0.00 0.00 0.00 0.01 0.01 0.01 0.01 0.00 0.00 0.00 0.00 0.00 0.00 0.00 0.00 0.01 0.05 0.09 0.09 0.06 0.01 0.00 0.00 0.00 0.00 0.02 0.02 0.02 0.04 0.03 0.03 0.01 0.00 0.00
0.00 0.00 0.00 0.00 0.00 0.00 0.00 0.00 0.00 0.00 0.00 0.00 0.00 0.00 0.00 0.00 0.00 0.00 0.00 0.00 0.00 0.00 0.00 0.00 0.00 0.00 0.00 0.00 0.00 0.00 0.00 0.00 0.00 0.00 0.00 0.00 0.02 0.04 0.04 0.03 0.00 0.00 0.00 0.00 0.00 0.01 0.01 0.01 0.05 0.02 0.02 0.03 0.01 0.01
0.00 0.00 0.00 0.00 0.00 0.00 0.00 0.00 0.00 0.00 0.00 0.00 0.00 0.00 0.00 0.00 0.00 0.00 0.00 0.00 0.00 0.00 0.00 0.00 0.00 0.00 0.00 0.00 0.00 0.00 0.00 0.01 0.02 0.00 0.01 0.00 0.01 0.02 0.01 0.01 0.01 0.00 0.00 0.00 0.00 0.00 0.00 0.00 0.00 0.01 0.01 0.06 0.04 0.01
0.00 0.00 0.00 0.00 0.00 0.00 0.00 0.00 0.00 0.00 0.00 0.00 0.00 0.00 0.00 0.00 0.00 0.00 0.00 0.00 0.00 0.00 0.00 0.00 0.00 0.00 0.00 0.00 0.00 0.04 0.05 0.02 0.02 0.01 0.01 0.00 0.01 0.01 0.01 0.01 0.00 0.00 0.00 0.00 0.01 0.03 0.03 0.00 0.01 0.01 0.00 0.01 0.00 0.01
0.00 0.00 0.00 0.00 0.00 0.00 0.00 0.00 0.00 0.00 0.00 0.00 0.00 0.00 0.01 0.01 0.00 0.00 0.00 0.00 0.00 0.00 0.01 0.00 0.00 0.00 0.00 0.00 0.00 0.03 0.03 0.01 0.00 0.00 0.00 0.01 0.02 0.01 0.01 0.00 0.00 0.00 0.02 0.03 0.06 0.07 0.03 0.01 0.03 0.04 0.03 0.02 0.01 0.00
0.00 0.00 0.00 0.00 0.00 0.00 0.00 0.00 0.00 0.00 0.00 0.00 0.00 0.00 0.01 0.00 0.00 0.00 0.00 0.02 0.00 0.00 0.00 0.00 0.00 0.01 0.00 0.00 0.01 0.04 0.03 0.03 0.00 0.00 0.00 0.00 0.00 0.00 0.00 0.00 0.00 0.00 0.01 0.01 0.02 0.02 0.00 0.01 0.02 0.01 0.01 0.01 0.01 0.00
0.00 0.00 0.00 0.00 0.00 0.00 0.00 0.00 0.00 0.00 0.00 0.00 0.00 0.00 0.00 0.00 0.00 0.01 0.04 0.04 0.01 0.00 0.00 0.00 0.00 0.00 0.00 0.00 0.01 0.00 0.00 0.01 0.01 0.00 0.00 0.00 0.00 0.00 0.00 0.00 0.00 0.00 0.00 0.00 0.00 0.00 0.00 0.00 0.00 0.00 0.00 0.00 0.00 0.00
0.00 0.00 0.00 0.00 0.00 0.00 0.00 0.01 0.01 0.00 0.00 0.01 0.01 0.00 0.01 0.01 0.01 0.03 0.03 0.01 0.01 0.01 0.00 0.00 0.00 0.00 0.00 0.00 0.01 0.00 0.00 0.00 0.00 0.00 0.00 0.00 0.00 0.00 0.00 0.00 0.00 0.00 0.00 0.00 0.00 0.00 0.00 0.00 0.00 0.00 0.00 0.00 0.00 0.00
0.00 0.00 0.00 0.00 0.00 0.00 0.00 0.00 0.00 0.00 0.00 0.01 0.00 0.00 0.00 0.00 0.01 0.00 0.00 0.00 0.01 0.01 0.01 0.00 0.01 0.01 0.00 0.00 0.00 0.00 0.00 0.00 0.00 0.00 0.00 0.00 0.00 0.00 0.00 0.00 0.00 0.00 0.00 0.00 0.00 0.00 0.00 0.00 0.00 0.00 0.00 0.00 0.00 0.00
0.00 0.00 0.00 0.00 0.00 0.00 0.00 0.00 0.00 0.00 0.01 0.00 0.00 0.00 0.00 0.00 0.00 0.00 0.00 0.00 0.00 0.00 0.00 0.00 0.00 0.00 0.00 0.00 0.00 0.00 0.00 0.00 0.00 0.00 0.00 0.00 0.00 0.00 0.00 0.00 0.00 0.00 0.00 0.00 0.00 0.00 0.00 0.00 0.00 0.00 0.00 0.00 0.00 0.00
0.00 0.00 0.00 0.00 0.00 0.00 0.00 0.00 0.00 0.01 0.00 0.00 0.00 0.00 0.00 0.00 0.00 0.00 0.00 0.00 0.00 0.00 0.00 0.00 0.00 0.00 0.00 0.00 0.00 0.00 0.00 0.00 0.00 0.00 0.00 0.00 0.00 0.00 0.00 0.00 0.00 0.00 0.00 0.00 0.00 0.00 0.00 0.00 0.00 0.00 0.00 0.00 0.00 0.00
0.00 0.00 0.00 0.00 0.00 0.00 0.00 0.00 0.00 0.00 0.00 0.00 0.00 0.00 0.00 0.00 0.00 0.00 0.00 0.00 0.00 0.00 0.00 0.00 0.00 0.00 0.00 0.00 0.00 0.00 0.00 0.00 0.00 0.00 0.00 0.00 0.00 0.00 0.00 0.00 0.00 0.00 0.00 0.00 0.00 0.00 0.00 0.00 0.00 0.00 0.00 0.00 0.00 0.00
0.00 0.00 0.00 0.00 0.00 0.00 0.00 0.00 0.00 0.00 0.00 0.00 0.00 0.00 0.00 0.00 0.00 0.00 0.00 0.00 0.00 0.00 0.00 0.00 0.00 0.00 0.00 0.00 0.00 0.00 0.00 0.00 0.00 0.00 0.00 0.00 0.00 0.00 0.00 0.00 0.00 0.00 0.00 0.00 0.00 0.00 0.00 0.00 0.00 0.00 0.00 0.00 0.00 0.00
0.00 0.00 0.00 0.00 0.00 0.00 0.00 0.00 0.00 0.00 0.00 0.00 0.00 0.00 0.00 0.00 0.00 0.00 0.00 0.00 0.00 0.00 0.00 0.00 0.00 0.00 0.00 0.00 0.00 0.00 0.00 0.00 0.00 0.00 0.00 0.00 0.00 0.00 0.00 0.00 0.00 0.00 0.00 0.00 0.00 0.00 0.00 0.00 0.00 0.00 0.00 0.00 0.00 0.00
0.00 0.00 0.00 0.00 0.00 0.00 0.00 0.00 0.00 0.00 0.00 0.00 0.00 0.00 0.00 0.00 0.00 0.00 0.00 0.00 0.00 0.00 0.00 0.00 0.00 0.00 0.00 0.00 0.00 0.00 0.00 0.00 0.00 0.00 0.00 0.00 0.00 0.00 0.00 0.00 0.00 0.00 0.00 0.00 0.00 0.00 0.00 0.00 0.00 0.00 0.00 0.00 0.00 0.00
MSLP
1020.35 1020.39 1020.46 1020.50 1020.53 1020.61 1020.67 1020.61 1020.41 1020.25 1020.05 1019.83 1019.56 1019.25 1018.98 1018.74 1018.51 1018.56 1018.50 1018.05 1018.17 1017.63 1015.99 1014.87 1014.43 1014.20 1014.09 1014.07 1014.04 1013.09 1012.33 1011.84 1011.51 1011.57 1011.66 1011.43 1011.07 1010.39 1009.93 1009.47 1009.34 1009.72 1010.02 1009.97 1009.31 1008.41 1007.11 1005.73 1004.44 1004.78 1005.68 1004.03 1003.51 1002.62
1019.82 1019.92 1020.03 1020.11 1020.22 1020.33 1020.38 1020.32 1020.24 1020.06 1019.84 1019.65 1019.46 1019.17 1018.89 1018.66 1018.44 1018.41 1018.66 1018.04 1017.84 1017.90 1015.97 1014.61 1013.92 1013.50 1013.47 1013.52 1014.02 1013.62 1013.21 1012.84 1012.11 1012.18 1012.15 1011.95 1011.59 1011.03 1010.73 1010.35 1009.62 1009.95 1009.91 1009.89 1009.43 1007.97 1006.72 1006.18 1005.76 1005.61 1005.71 1005.32 1004.06 1003.22
1019.34 1019.52 1019.69 1019.72 1019.96 1020.11 1020.22 1020.12 1020.00 1019.85 1019.63 1019.43 1019.25 1019.02 1018.81 1018.57 1018.35 1018.25 1018.56 1018.34 1018.01 1017.62 1015.61 1014.44 1012.82 1012.13 1012.13 1012.44 1012.74 1013.28 1012.67 1011.94 1011.77 1011.57 1012.05 1012.15 1011.95 1011.39 1011.16 1010.66 1010.00 1009.73 1009.65 1009.61 1009.20 1007.43 1006.88 1006.37 1005.73 1005.73 1005.57 1005.08 1004.30 1003.40
1018.89 1019.14 1019.27 1019.49 1019.73 1019.90 1019.93 1019.83 1019.72 1019.56 1019.36 1019.16 1019.00 1018.75 1018.59 1018.34 1018.13 1017.94 1018.45 1018.26 1018.33 1017.89 1016.89 1014.04 1012.34 1011.82 1011.36 1011.44 1011.57 1011.37 1010.94 1011.37 1011.55 1011.60 1011.93 1011.91 1011.97 1011.09 1010.94 1010.44 1010.20 1009.62 1009.67 1009.22 1008.71 1007.65 1006.67 1005.81 1005.68 1005.74 1005.66 1005.01 1004.47 1003.48
1018.59 1018.81 1019.08 1019.35 1019.57 1019.72 1019.70 1019.62 1019.52 1019.35 1019.16 1018.92 1018.71 1018.52 1018.28 1018.09 1017.85 1017.72 1017.68 1017.50 1017.56 1017.98 1016.92 1014.76 1012.74 1011.02 1010.66 1010.63 1010.40 1010.60 1011.15 1011.56 1011.73 1011.96 1011.99 1011.64 1011.15 1011.05 1010.49 1010.25 1009.21 1008.73 1008.36 1008.50 1007.70 1006.97 1006.75 1005.94 1005.40 1005.35 1005.55 1005.17 1004.67 1004.19
1018.45 1018.72 1019.07 1019.34 1019.44 1019.51 1019.45 1019.36 1019.21 1019.08 1018.91 1018.68 1018.44 1018.15 1017.92 1017.83 1017.77 1017.88 1017.37 1017.21 1017.06 1017.10 1016.89 1015.56 1013.40 1011.63 1010.55 1009.84 1009.79 1010.18 1010.37 1010.84 1010.92 1010.91 1010.79 1010.47 1009.96 1010.18 1010.15 1009.35 1007.87 1007.40 1006.96 1006.69 1006.58 1006.20 1006.12 1005.57 1005.15 1005.00 1005.10 1005.12 1004.57 1003.89
1018.50 1018.81 1019.22 1019.30 1019.36 1019.35 1019.30 1019.14 1018.91 1018.80 1018.56 1018.37 1018.15 1017.83 1017.68 1017.71 1018.02 1018.02 1017.38 1016.86 1016.73 1016.97 1016.85 1015.91 1014.36 1012.02 1010.59 1010.00 1009.83 1009.69 1009.68 1009.82 1009.98 1010.21 1010.12 1009.87 1009.54 1009.72 1009.47 1008.35 1007.31 1006.70 1006.34 1006.06 1005.82 1005.96 1005.62 1005.06 1004.62 1004.31 1004.70 1004.71 1004.27 1003.93
1018.50 1018.82 1019.06 1019.20 1019.25 1019.22 1019.12 1018.90 1018.66 1018.44 1018.21 1017.96 1017.80 1017.59 1017.44 1017.39 1017.44 1017.29 1015.92 1015.78 1016.77 1017.13 1016.92 1016.32 1014.72 1013.01 1010.80 1010.63 1010.53 1010.19 1010.04 1009.98 1009.79 1009.67 1009.67 1009.52 1009.51 1009.38 1008.57 1006.83 1006.30 1005.82 1005.43 1005.13 1004.80 1004.77 1004.65 1004.21 1004.15 1004.09 1004.25 1004.29 1003.82 1003.63
1018.43 1018.76 1019.00 1018.96 1019.06 1018.96 1018.85 1018.70 1018.40 1018.09 1017.79 1017.54 1017.38 1017.16 1017.41 1017.39 1017.14 1016.03 1015.46 1015.65 1016.11 1016.97 1016.73 1016.05 1015.30 1013.57 1011.42 1011.05 1010.81 1010.57 1010.54 1010.56 1010.16 1009.79 1009.61 1009.44 1009.17 1008.67 1007.04 1006.50 1005.98 1005.41 1005.16 1004.72 1004.43 1004.38 1004.17 1003.94 1003.55 1003.71 1003.71 1003.58 1003.57 1003.31
1018.61 1018.71 1018.74 1018.86 1018.90 1018.77 1018.60 1018.43 1018.13 1017.70 1017.37 1017.22 1017.28 1017.26 1016.85 1016.19 1015.50 1015.78 1015.72 1015.99 1016.16 1016.25 1016.38 1015.88 1014.80 1013.68 1012.34 1011.80 1011.24 1011.16 1010.92 1010.75 1010.35 1009.51 1009.08 1008.83 1008.07 1006.90 1006.25 1005.94 1005.65 1005.15 1004.72 1004.44 1004.34 1004.02 1003.66 1003.40 1002.93 1002.67 1003.33 1003.33 1003.21 1002.84
1018.57 1018.63 1018.67 1018.71 1018.71 1018.59 1018.45 1018.26 1017.95 1017.51 1017.17 1017.25 1017.36 1017.16 1016.46 1015.79 1015.75 1015.69 1015.50 1015.67 1015.57 1015.46 1015.16 1014.35 1013.67 1012.89 1011.46 1011.59 1011.28 1011.09 1010.90 1010.58 1010.15 1009.24 1008.64 1007.78 1007.38 1006.54 1005.86 1005.49 1004.93 1004.59 1004.20 1003.68 1003.23 1002.87 1002.53 1002.38 1002.23 1002.18 1002.39 1002.69 1002.94 1003.01
1018.49 1018.50 1018.48 1018.56 1018.54 1018.49 1018.35 1018.13 1017.92 1017.86 1017.67 1017.62 1017.72 1017.31 1016.97 1016.34 1015.81 1015.61 1014.93 1014.88 1014.73 1014.06 1013.65 1013.19 1012.28 1011.94 1011.27 1010.97 1011.03 1010.68 1010.51 1010.37 1009.63 1008.97 1008.45 1007.30 1006.32 1005.86 1005.47 1004.98 1004.51 1004.14 1003.70 1002.96 1002.47 1001.83 1001.35 1001.43 1001.49 1001.62 1001.99 1002.31 1002.68 1002.73
1018.35 1018.40 1018.35 1018.41 1018.38 1018.28 1018.14 1018.00 1017.87 1017.75 1017.52 1017.47 1017.49 1017.33 1016.89 1016.04 1015.46 1014.76 1014.20 1014.12 1013.85 1013.33 1012.74 1012.15 1012.08 1011.59 1010.92 1010.66 1010.55 1010.35 1009.86 1009.37 1008.87 1008.81 1008.28 1007.24 1006.44 1005.85 1005.26 1004.64 1004.16 1003.66 1003.24 1002.66 1002.03 1001.33 1000.95 1001.24 1001.38 1001.37 1001.43 1001.58 1002.38 1002.50
1018.28 1018.26 1018.21 1018.17 1018.06 1017.94 1017.85 1017.77 1017.65 1017.62 1017.82 1017.64 1017.23 1016.98 1016.44 1015.42 1014.40 1013.51 1013.01 1012.71 1012.41 1012.34 1012.20 1012.05 1011.98 1011.57 1010.96 1010.55 1010.10 1009.67 1009.00 1008.86 1009.10 1008.52 1007.53 1006.94 1006.31 1005.64 1004.84 1004.29 1004.20 1003.58 1003.02 1002.42 1001.81 1001.11 1000.82 1001.08 1001.26 1001.42 1001.47 1001.43 1001.43 1001.75
1018.12 1018.10 1018.03 1017.80 1017.59 1017.62 1017.57 1017.55 1017.50 1017.68 1017.83 1017.56 1017.15 1016.49 1015.59 1014.40 1013.63 1012.91 1012.34 1012.29 1011.86 1011.75 1011.90 1011.78 1011.72 1011.52 1010.98 1010.38 1009.79 1009.41 1009.04 1008.79 1008.38 1007.42 1007.02 1006.35 1005.72 1005.23 1004.55 1004.00 1003.62 1003.19 1002.71 1002.15 1001.64 1001.08 1000.82 1001.03 1001.12 1001.40 1001.52 1001.25 1000.93 1001.15
1018.00 1017.84 1017.74 1017.67 1017.61 1017.54 1017.43 1017.49 1017.59 1017.71 1017.71 1017.54 1017.03 1016.10 1014.87 1014.50 1013.67 1012.86 1012.40 1012.08 1011.44 1011.60 1011.57 1011.69 1011.67 1011.23 1010.50 1010.10 1009.76 1009.38 1009.22 1008.78 1007.86 1007.32 1006.79 1006.04 1005.36 1004.94 1004.31 1003.74 1003.39 1002.95 1002.44 1001.91 1001.48 1001.15 1000.90 1000.88 1000.84 1000.88 1000.94 1000.74 1000.48 1000.62
1017.94 1017.90 1017.73 1017.60 1017.47 1017.37 1017.38 1017.65 1017.72 1017.60 1017.34 1016.87 1016.10 1015.23 1014.92 1014.46 1013.85 1012.99 1012.38 1011.78 1011.42 1011.52 1011.55 1011.54 1011.45 1010.91 1010.75 1010.57 1010.14 1009.72 1008.91 1007.79 1007.27 1006.77 1006.17 1005.87 1005.39 1004.53 1003.99 1003.59 1003.18 1002.76 1002.48 1001.87 1001.25 1000.74 1000.46 1000.35 1000.73 1001.03 1000.67 1000.76 1000.49 1000.75
1017.91 1017.74 1017.70 1017.62 1017.43 1017.31 1017.51 1017.62 1017.57 1017.19 1016.64 1015.80 1015.56 1014.44 1014.19 1013.57 1013.01 1012.47 1011.91 1011.40 1011.39 1011.26 1011.39 1011.04 1010.90 1010.89 1010.47 1009.96 1009.49 1008.83 1008.07 1007.30 1006.77 1006.34 1005.73 1005.14 1004.58 1004.00 1003.63 1003.59 1003.00 1002.70 1002.41 1001.92 1001.35 1000.87 1000.39 1000.39 1000.69 1000.73 1000.21 1000.86 1001.11 1001.13
1017.84 1017.74 1017.64 1017.61 1017.59 1017.71 1017.50 1017.33 1017.27 1016.80 1015.75 1015.08 1014.20 1013.47 1013.10 1012.49 1011.75 1011.36 1011.25 1011.01 1010.75 1010.65 1010.82 1010.72 1010.68 1010.46 1010.15 1009.37 1008.75 1008.05 1007.54 1007.32 1006.66 1005.96 1005.38 1004.73 1004.19 1003.65 1003.33 1003.24 1003.04 1002.80 1002.58 1002.19 1001.89 1001.41 1000.97 1000.72 1001.05 1001.37 1001.29 1001.47 1001.60 1001.73
1017.46 1017.28 1017.24 1017.42 1017.60 1017.71 1017.33 1016.52 1016.19 1016.04 1015.28 1014.06 1013.27 1012.67 1012.34 1011.83 1011.17 1010.97 1010.88 1010.76 1010.65 1010.66 1010.73 1010.63 1010.12 1009.40 1008.81 1008.13 1007.66 1007.35 1007.06 1006.85 1006.50 1006.01 1005.35 1004.66 1004.18 1003.84 1003.49 1003.29 1003.11 1002.88 1002.81 1002.42 1002.13 1001.93 1001.58 1001.23 1001.54 1001.68 1001.74 1001.63 1001.72 1001.80
1017.25 1017.04 1016.90 1017.34 1017.55 1017.68 1017.43 1016.55 1015.99 1015.25 1014.37 1013.83 1012.77 1012.37 1011.72 1011.24 1011.06 1010.93 1010.74 1010.39 1010.69 1010.59 1010.39 1009.63 1009.07 1008.38 1007.72 1007.31 1006.95 1006.76 1006.67 1006.51 1006.28 1006.19 1005.95 1005.48 1004.80 1004.33 1003.91 1003.60 1003.53 1003.17 1003.03 1003.08 1002.92 1002.60 1002.13 1002.32 1002.18 1002.30 1002.26 1002.15 1002.21 1002.44
1017.22 1016.82 1017.15 1017.35 1017.46 1016.97 1016.79 1015.94 1015.63 1014.55 1014.20 1013.08 1012.54 1011.74 1011.34 1011.05 1010.87 1010.60 1010.18 1010.44 1010.25 1009.61 1009.23 1008.77 1008.22 1007.74 1007.39 1007.07 1006.78 1006.53 1006.36 1006.14 1006.12 1005.96 1005.73 1005.50 1005.28 1004.78 1004.47 1004.15 1003.83 1003.92 1003.71 1003.46 1003.17 1003.08 1002.97 1002.94 1002.73 1002.70 1002.56 1002.47 1002.35 1002.32
1017.16 1017.03 1017.03 1016.99 1017.09 1016.75 1015.81 1015.12 1014.86 1013.77 1013.33 1012.37 1011.63 1011.24 1010.75 1010.38 1010.14 1010.03 1010.09 1009.93 1009.72 1009.33 1008.96 1008.56 1008.06 1007.67 1007.54 1006.99 1006.74 1006.56 1006.52 1006.53 1006.49 1006.33 1006.11 1005.95 1005.55 1005.28 1004.94 1004.61 1004.34 1004.19 1004.07 1003.96 1003.63 1003.55 1003.44 1003.32 1003.35 1003.32 1003.41 1003.53 1003.52 1003.62
1017.08 1017.20 1016.99 1016.63 1016.43 1016.08 1015.20 1014.53 1013.63 1012.97 1012.26 1011.83 1011.43 1011.01 1010.45 1010.28 1009.99 1009.99 1009.98 1009.82 1009.78 1009.33 1008.85 1008.49 1007.96 1007.72 1007.45 1007.21 1007.24 1007.03 1006.95 1006.92 1006.74 1006.53 1006.49 1006.19 1006.11 1006.00 1005.56 1005.28 1005.00 1004.77 1004.70 1004.54 1004.39 1004.43 1004.31 1004.48 1004.30 1004.26 1004.50 1004.66 1004.74 1005.04
1017.57 1017.37 1017.15 1016.71 1016.25 1015.70 1014.69 1013.61 1012.85 1012.53 1012.00 1011.49 1011.14 1010.73 1010.58 1010.53 1010.35 1010.03 1009.64 1009.88 1009.65 1009.42 1009.14 1008.82 1008.45 1008.25 1008.07 1007.96 1007.66 1007.32 1007.08 1007.01 1007.10 1007.22 1006.99 1006.72 1006.63 1006.42 1006.34 1006.13 1005.86 1005.76 1005.31 1005.10 1005.20 1005.24 1005.47 1005.54 1005.40 1005.50 1005.72 1005.80 1005.94 1005.81
1017.17 1016.79 1016.58 1015.59 1014.97 1014.73 1013.91 1013.53 1012.81 1012.23 1011.95 1011.43 1011.07 1010.74 1010.59 1010.75 1010.41 1009.97 1009.78 1010.09 1009.89 1009.55 1009.28 1009.16 1008.98 1008.79 1008.41 1008.32 1008.09 1007.51 1007.17 1007.01 1007.13 1007.32 1007.40 1007.18 1007.13 1007.14 1007.40 1007.40 1007.26 1007.04 1006.48 1006.14 1006.28 1006.40 1006.54 1006.52 1006.50 1006.63 1006.63 1006.78 1006.97 1006.91
1016.69 1016.13 1015.48 1014.80 1014.23 1013.82 1013.53 1012.90 1012.50 1012.40 1012.01 1011.61 1011.55 1011.27 1011.13 1011.00 1010.61 1010.73 1010.47 1010.35 1010.11 1009.66 1009.35 1008.94 1008.81 1009.03 1008.98 1008.54 1007.91 1007.28 1007.08 1006.98 1007.16 1007.40 1007.57 1007.59 1007.44 1007.39 1007.46 1007.84 1008.08 1007.89 1007.26 1006.90 1006.84 1006.98 1007.41 1007.69 1007.90 1008.02 1008.11 1008.22 1008.38 1008.47
1015.86 1015.23 1014.82 1014.29 1014.01 1013.57 1013.42 1013.01 1012.63 1012.18 1012.03 1011.97 1011.91 1011.78 1011.60 1011.29 1011.17 1010.84 1010.43 1010.25 1010.09 1009.65 1009.29 1008.90 1008.38 1008.67 1008.44 1008.25 1007.90 1007.47 1007.29 1007.46 1007.67 1007.83 1007.94 1007.89 1007.78 1007.82 1007.89 1007.86 1007.83 1007.62 1007.49 1007.40 1007.53 1007.64 1007.88 1008.18 1008.48 1008.77 1009.00 1009.32 1009.60 1009.67
1015.52 1014.65 1014.15 1013.85 1013.54 1013.25 1012.97 1012.87 1012.55 1012.44 1012.42 1012.35 1012.39 1012.14 1011.75 1011.25 1010.81 1010.47 1010.10 1010.38 1010.27 1010.03 1009.71 1009.49 1009.09 1008.80 1008.78 1008.71 1008.49 1008.32 1008.23 1008.04 1008.26 1008.84 1008.98 1009.30 1009.35 1009.32 1008.95 1008.49 1008.39 1008.28 1008.27 1008.37 1008.38 1008.27 1008.51 1008.97 1009.39 1009.63 1010.01 1010.28 1010.52 1010.54
1014.65 1013.90 1013.83 1013.61 1013.40 1013.17 1012.91 1012.84 1012.75 1012.58 1012.52 1012.45 1012.31 1012.09 1011.66 1011.04 1010.35 1010.00 1009.95 1010.14 1010.15 1010.12 1010.09 1009.97 1009.89 1009.86 1009.81 1009.51 1009.63 1009.62 1009.55 1009.37 1009.30 1009.42 1009.44 1009.87 1010.19 1010.06 1009.69 1009.37 1009.37 1009.32 1009.22 1009.27 1009.54 1009.81 1009.70 1009.88 1010.11 1010.30 1010.57 1010.89 1010.97 1011.05
1013.63 1013.60 1013.62 1013.55 1013.47 1013.16 1012.99 1012.94 1012.77 1012.65 1012.55 1012.34 1012.06 1011.96 1011.46 1010.98 1010.25 1009.76 1009.76 1009.99 1010.02 1009.90 1010.03 1010.43 1010.65 1010.77 1010.66 1010.58 1010.50 1010.55 1010.80 1010.58 1010.38 1010.08 1010.01 1010.18 1010.25 1010.26 1010.24 1010.12 1009.97 1009.93 1010.03 1010.15 1010.40 1010.59 1010.79 1011.00 1011.12 1011.27 1011.40 1011.50 1011.51 1011.53
1013.34 1013.41 1013.48 1013.65 1013.53 1013.18 1013.07 1012.96 1012.75 1012.55 1012.21 1012.03 1011.64 1011.42 1010.85 1010.64 1010.09 1009.60 1009.37 1009.44 1009.87 1010.12 1010.30 1010.60 1010.86 1011.21 1011.04 1010.99 1011.04 1011.17 1011.15 1011.24 1011.11 1010.86 1010.59 1010.59 1010.72 1010.73 1010.68 1010.67 1010.64 1010.63 1010.79 1011.04 1011.25 1011.39 1011.49 1011.61 1011.75 1011.79 1011.79 1011.75 1011.72 1011.65
1013.28 1013.22 1013.28 1013.27 1013.12 1012.83 1012.47 1012.39 1012.19 1011.88 1011.55 1011.25 1010.83 1010.55 1010.38 1010.21 1009.67 1009.11 1008.88 1008.85 1009.22 1009.73 1010.32 1010.46 1010.83 1011.16 1011.22 1011.28 1011.40 1011.52 1011.51 1011.48 1011.35 1011.11 1010.93 1010.84 1010.88 1011.01 1011.11 1011.18 1011.21 1011.31 1011.49 1011.77 1011.84 1011.85 1011.92 1011.96 1012.05 1012.03 1011.96 1011.94 1011.88 1011.77
Thickness
5606 5603 5600 5597 5594 5590 5587 5585 5584 5582 5581 5579 5578 5577 5576 5575 5573 5572 5570 5570 5566 5570 5574 5587 5589 5585 5581 5577 5578 5587 5591 5594 5592 5590 5591 5591 5593 5600 5604 5613 5617 5610 5608 5608 5612 5622 5629 5668 5686 5687 5681 5703 5715 5728
5599 5596 5593 5589 5585 5581 5579 5576 5574 5572 5571 5569 5567 5566 5565 5564 5563 5561 5557 5560 5558 5555 5566 5577 5580 5580 5578 5574 5569 5568 5574 5575 5581 5579 5579 5581 5586 5588 5586 5587 5606 5600 5602 5603 5610 5621 5646 5656 5666 5676 5679 5684 5701 5716
5593 5589 5585 5581 5577 5573 5569 5567 5565 5563 5562 5561 5559 5558 5556 5555 5554 5552 5549 5548 5547 5545 5557 5561 5575 5583 5579 5575 5573 5561 5563 5575 5576 5579 5573 5572 5577 5579 5577 5580 5597 5600 5600 5599 5608 5633 5637 5646 5662 5668 5672 5679 5692 5709
5586 5581 5577 5573 5568 5564 5562 5560 5558 5557 5555 5554 5552 5550 5548 5547 5546 5546 5541 5540 5536 5536 5543 5555 5574 5575 5578 5574 5573 5574 5576 5572 5570 5569 5573 5568 5568 5577 5574 5581 5581 5590 5592 5596 5599 5619 5631 5647 5654 5660 5664 5676 5683 5699
5578 5573 5568 5564 5560 5556 5554 5552 5550 5548 5547 5546 5544 5543 5543 5541 5540 5540 5539 5538 5533 5527 5533 5544 5562 5573 5574 5573 5574 5573 5567 5561 5560 5559 5556 5565 5568 5568 5572 5575 5584 5594 5594 5591 5599 5616 5622 5637 5650 5657 5656 5662 5672 5684
5568 5564 5559 5554 5551 5549 5547 5545 5543 5541 5539 5538 5538 5538 5538 5536 5534 5531 5536 5532 5529 5526 5528 5533 5545 5561 5570 5575 5578 5572 5569 5565 5565 5565 5566 5567 5571 5569 5567 5572 5597 5599 5606 5608 5612 5622 5626 5637 5645 5653 5653 5656 5668 5682
5558 5553 5547 5545 5542 5540 5538 5537 5537 5534 5534 5534 5533 5533 5533 5530 5526 5520 5527 5528 5525 5521 5522 5530 5529 5558 5568 5573 5572 5572 5572 5569 5568 5566 5564 5568 5575 5572 5572 5582 5591 5601 5605 5610 5616 5616 5622 5634 5641 5652 5651 5654 5664 5675
5548 5543 5538 5535 5533 5531 5529 5529 5529 5529 5530 5530 5530 5529 5528 5526 5523 5521 5531 5530 5520 5513 5514 5522 5525 5543 5564 5562 5560 5561 5565 5561 5565 5569 5567 5567 5567 5569 5570 5590 5599 5605 5609 5613 5620 5622 5627 5637 5642 5646 5650 5652 5662 5672
5539 5533 5528 5527 5524 5523 5522 5522 5523 5525 5527 5527 5527 5527 5524 5520 5517 5527 5529 5526 5522 5514 5518 5524 5523 5535 5552 5553 5553 5558 5555 5557 5558 5562 5560 5564 5563 5566 5584 5589 5596 5603 5607 5613 5619 5621 5625 5631 5642 5645 5648 5654 5659 5669
5526 5524 5522 5519 5517 5516 5517 5518 5519 5522 5524 5524 5522 5522 5526 5526 5528 5525 5522 5520 5517 5516 5509 5518 5524 5526 5542 5540 5547 5550 5549 5553 5556 5563 5566 5565 5569 5585 5591 5593 5596 5602 5607 5611 5612 5616 5621 5630 5640 5650 5645 5651 5660 5671
5518 5516 5514 5512 5511 5512 5512 5513 5515 5518 5520 5519 5518 5521 5522 5524 5522 5522 5527 5525 5525 5528 5525 5529 5534 5540 5552 5547 5552 5546 5551 5550 5562 5565 5572 5579 5577 5585 5593 5595 5600 5603 5608 5615 5622 5625 5630 5636 5642 5650 5653 5655 5658 5663
5512 5511 5510 5509 5509 5508 5508 5509 5510 5511 5511 5510 5508 5509 5511 5516 5521 5524 5532 5530 5532 5542 5542 5543 5549 5548 5552 5549 5550 5553 5557 5554 5561 5568 5571 5580 5589 5593 5595 5599 5603 5606 5611 5621 5626 5632 5641 5642 5646 5649 5648 5652 5656 5661
5508 5508 5507 5506 5505 5505 5506 5506 5506 5506 5507 5507 5508 5510 5514 5519 5514 5531 5535 5535 5537 5543 5547 5552 5549 5551 5555 5556 5555 5556 5561 5562 5567 5566 5566 5579 5586 5590 5595 5601 5604 5611 5616 5622 5626 5634 5641 5642 5646 5650 5653 5657 5657 5661
5505 5505 5504 5504 5504 5504 5503 5502 5502 5502 5500 5504 5512 5507 5518 5519 5534 5541 5543 5546 5547 5548 5547 5546 5547 5551 5554 5558 5561 5563 5571 5569 5559 5564 5576 5582 5587 5590 5597 5603 5601 5609 5615 5620 5626 5633 5639 5641 5645 5649 5654 5658 5662 5666
5502 5502 5502 5502 5503 5501 5501 5500 5499 5498 5497 5503 5509 5512 5516 5531 5538 5545 5549 5547 5551 5550 5548 5553 5547 5549 5554 5560 5563 5567 5568 5567 5569 5579 5578 5585 5591 5594 5601 5606 5608 5611 5614 5620 5626 5633 5639 5641 5646 5647 5651 5658 5663 5664
5498 5499 5500 5499 5498 5498 5498 5497 5496 5494 5494 5497 5499 5509 5523 5523 5535 5542 5544 5545 5552 5548 5552 5549 5550 5556 5564 5564 5566 5568 5561 5564 5578 5581 5585 5590 5595 5598 5604 5609 5610 5613 5617 5623 5627 5631 5636 5640 5645 5650 5651 5653 5659 5660
5492 5493 5494 5495 5496 5496 5495 5493 5491 5493 5496 5504 5504 5509 5512 5518 5521 5537 5542 5547 5547 5553 5553 5551 5553 5561 5559 5556 5560 5564 5571 5581 5583 5586 5592 5593 5597 5604 5608 5609 5612 5617 5619 5624 5630 5636 5639 5643 5642 5642 5646 5644 5646 5643
5487 5489 5490 5491 5492 5493 5490 5489 5490 5496 5506 5506 5506 5516 5516 5522 5528 5532 5540 5549 5551 5551 5551 5557 5559 5558 5563 5566 5567 5571 5578 5585 5589 5591 5595 5598 5602 5608 5611 5610 5614 5615 5618 5623 5629 5635 5639 5642 5643 5645 5652 5646 5645 5647
5484 5485 5486 5487 5488 5487 5490 5491 5489 5494 5504 5507 5515 5521 5525 5533 5543 5545 5544 5547 5553 5556 5556 5559 5562 5562 5563 5568 5574 5581 5586 5589 5595 5600 5600 5605 5609 5613 5615 5615 5614 5613 5615 5620 5622 5629 5637 5640 5639 5638 5641 5644 5646 5648
5482 5485 5486 5485 5484 5483 5490 5499 5497 5498 5504 5518 5526 5533 5533 5538 5542 5543 5546 5554 5555 5557 5559 5559 5565 5570 5574 5583 5585 5590 5594 5594 5595 5599 5605 5609 5611 5614 5616 5616 5616 5615 5614 5618 5621 5622 5631 5637 5636 5636 5639 5645 5646 5648
5481 5484 5485 5483 5481 5479 5481 5489 5495 5500 5510 5512 5521 5527 5535 5536 5541 5544 5547 5549 5550 5553 5559 5565 5573 5580 5589 5591 5593 5593 5594 5594 5596 5597 5599 5602 5606 5609 5614 5616 5614 5616 5615 5614 5617 5623 5629 5629 5631 5632 5635 5639 5641 5640
5477 5481 5481 5479 5480 5487 5486 5490 5493 5501 5505 5516 5520 5534 5538 5537 5538 5543 5549 5553 5557 5566 5566 5575 5580 5586 5589 5591 5594 5596 5596 5597 5597 5598 5599 5601 5603 5606 5610 5613 5613 5612 5612 5614 5618 5619 5621 5621 5625 5627 5630 5634 5637 5639
5474 5478 5479 5482 5483 5480 5487 5495 5502 5515 5520 5526 5534 5539 5544 5549 5551 5550 5555 5557 5560 5567 5573 5577 5582 5587 5588 5593 5595 5596 5596 5594 5594 5595 5597 5599 5603 5604 5607 5610 5612 5613 5614 5614 5616 5616 5617 5618 5620 5622 5622 5622 5625 5627
5471 5475 5479 5485 5488 5482 5493 5502 5509 5520 5527 5530 5532 5540 5547 5549 5551 5552 5558 5561 5563 5567 5572 5576 5581 5585 5587 5590 5588 5590 5591 5590 5591 5594 5595 5597 5598 5598 5598 5601 5605 5609 5609 5610 5611 5610 5612 5611 5611 5614 5613 5613 5613 5612
5464 5469 5469 5467 5475 5487 5503 5516 5522 5521 5526 5532 5538 5543 5544 5545 5549 5557 5564 5562 5565 5567 5569 5572 5576 5578 5580 5582 5585 5587 5589 5591 5590 5589 5590 5593 5594 5594 5594 5597 5600 5600 5603 5606 5603 5603 5601 5601 5603 5604 5603 5602 5601 5602
5465 5472 5468 5492 5501 5500 5511 5511 5521 5527 5526 5536 5541 5543 5543 5544 5550 5557 5556 5557 5560 5565 5566 5569 5572 5574 5579 5580 5582 5587 5588 5589 5589 5588 5588 5589 5590 5588 5586 5586 5587 5589 5593 5596 5594 5593 5593 5593 5594 5594 5595 5593 5589 5594
5467 5474 5479 5485 5498 5505 5507 5511 5515 5517 5528 5537 5534 5538 5542 5547 5552 5550 5552 5556 5558 5562 5565 5569 5572 5572 5574 5578 5581 5587 5589 5591 5591 5588 5586 5586 5586 5587 5587 5584 5583 5583 5587 5590 5589 5588 5585 5581 5580 5579 5577 5575 5572 5572
5475 5483 5489 5496 5496 5498 5508 5513 5519 5529 5534 5531 5532 5539 5540 5546 5546 5547 5552 5556 5556 5562 5566 5572 5578 5576 5579 5580 5583 5588 5593 5589 5589 5587 5586 5585 5586 5586 5585 5584 5584 5583 5584 5584 5583 5582 5580 5577 5574 5570 5567 5563 5560 5558
5471 5483 5497 5503 5509 5509 5516 5519 5525 5523 5522 5527 5531 5532 5539 5543 5548 5551 5556 5555 5557 5561 5567 5571 5575 5577 5577 5579 5582 5582 5581 5587 5586 5578 5575 5569 5572 5574 5575 5579 5579 5579 5578 5576 5572 5573 5571 5566 5561 5557 5552 5549 5545 5544
5478 5486 5501 5504 5511 5515 5517 5513 5517 5521 5524 5526 5530 5532 5540 5545 5552 5557 5559 5559 5560 5563 5564 5565 5565 5568 5569 5571 5570 5573 5573 5572 5574 5577 5573 5568 5567 5566 5568 5571 5571 5569 5569 5568 5564 5559 5556 5554 5550 5547 5543 5538 5535 5532
5487 5491 5497 5499 5505 5507 5509 5510 5515 5521 5525 5528 5531 5537 5542 5546 5555 5561 5563 5562 5564 5567 5565 5561 5559 5560 5564 5565 5565 5566 5565 5565 5566 5568 5568 5565 5564 5564 5563 5562 5562 5561 5560 5558 5554 5549 5544 5539 5536 5533 5531 5529 5527 5523
5494 5498 5499 5501 5501 5506 5509 5513 5519 5522 5530 5535 5541 5542 5552 5554 5560 5566 5568 5569 5567 5566 5565 5560 5558 5557 5557 5557 5558 5558 5558 5557 5558 5560 5562 5561 5559 5558 5557 5555 5553 5552 5549 5546 5542 5538 5535 5531 5526 5524 5522 5520 5518 5516
5497 5500 5502 5506 5510 5517 5523 5528 5532 5539 5541 5545 5551 5553 5555 5559 5565 5571 5573 5574 5572 5568 5562 5561 5558 5556 5556 5556 5555 5553 5552 5552 5553 5554 5555 5555 5554 5553 5551 5548 5546 5543 5539 5534 5531 5528 5525 5522 5519 5518 5516 5512 5510 5508